Time,TemperatureF,DewpointF,PressureIn,WindDirection,WindDirectionDegrees,WindSpeedMPH,WindSpeedGustMPH,Humidity,HourlyPrecipIn,Conditions,Clouds,dailyrainin,SoftwareType,DateUTC
2013-05-18 00:00:00,80.0,77.0,30.10,SE,130,10.0,11.0,92,-99.99,,,-99.99,,2013-05-18 04:00:00,
2013-05-18 00:22:00,80.0,77.0,30.10,SE,130,10.0,11.0,92,-99.99,,,-99.99,,2013-05-18 04:22:00,
2013-05-18 00:32:00,80.0,77.0,30.10,SE,130,10.0,11.0,92,-99.99,,,-99.99,,2013-05-18 04:32:00,
2013-05-18 00:42:00,80.0,77.0,30.10,SE,130,10.0,11.0,92,-99.99,,,-99.99,,2013-05-18 04:42:00,
2013-05-18 00:52:00,80.0,77.0,30.10,SE,130,10.0,11.0,92,-99.99,,,-99.99,,2013-05-18 04:52:00,
2013-05-18 01:00:00,80.0,78.0,30.08,SE,140,13.0,13.0,93,-99.99,,,-99.99,,2013-05-18 05:00:00,
2013-05-18 01:21:00,80.0,78.0,30.08,SE,140,13.0,13.0,93,-99.99,,,-99.99,,2013-05-18 05:21:00,
2013-05-18 01:31:00,80.0,78.0,30.08,SE,140,13.0,13.0,93,-99.99,,,-99.99,,2013-05-18 05:31:00,
2013-05-18 01:41:00,80.0,78.0,30.08,SE,140,13.0,13.0,93,-99.99,,,-99.99,,2013-05-18 05:41:00,
2013-05-18 01:51:00,80.0,78.0,30.08,SE,140,13.0,13.0,93,-99.99,,,-99.99,,2013-05-18 05:51:00,
2013-05-18 02:00:00,79.0,77.0,30.06,SE,140,13.0,14.0,91,-99.99,,,-99.99,,2013-05-18 06:00:00,
2013-05-18 02:21:00,79.0,77.0,30.06,SE,140,13.0,14.0,91,-99.99,,,-99.99,,2013-05-18 06:21:00,
2013-05-18 02:31:00,79.0,77.0,30.06,SE,140,13.0,14.0,91,-99.99,,,-99.99,,2013-05-18 06:31:00,
2013-05-18 02:41:00,79.0,77.0,30.06,SE,140,13.0,14.0,91,-99.99,,,-99.99,,2013-05-18 06:41:00,
2013-05-18 02:51:00,79.0,77.0,30.06,SE,140,13.0,14.0,91,-99.99,,,-99.99,,2013-05-18 06:51:00,
2013-05-18 03:00:00,79.0,75.0,30.05,SE,140,14.0,15.0,87,-99.99,,,-99.99,,2013-05-18 07:00:00,
2013-05-18 03:21:00,79.0,75.0,30.05,SE,140,14.0,15.0,87,-99.99,,,-99.99,,2013-05-18 07:21:00,
2013-05-18 03:31:00,79.0,75.0,30.05,SE,140,14.0,15.0,87,-99.99,,,-99.99,,2013-05-18 07:31:00,
2013-05-18 03:42:00,79.0,75.0,30.05,SE,140,14.0,15.0,87,-99.99,,,-99.99,,2013-05-18 07:42:00,
2013-05-18 03:52:00,79.0,75.0,30.05,SE,140,14.0,15.0,87,-99.99,,,-99.99,,2013-05-18 07:52:00,
2013-05-18 04:00:00,79.0,76.0,30.05,SE,140,11.0,13.0,90,-99.99,,,-99.99,,2013-05-18 08:00:00,
2013-05-18 04:21:00,79.0,76.0,30.05,SE,140,11.0,13.0,90,-99.99,,,-99.99,,2013-05-18 08:21:00,
2013-05-18 04:32:00,79.0,76.0,30.05,SE,140,11.0,13.0,90,-99.99,,,-99.99,,2013-05-18 08:32:00,
2013-05-18 04:42:00,79.0,76.0,30.05,SE,140,11.0,13.0,90,-99.99,,,-99.99,,2013-05-18 08:42:00,
2013-05-18 04:52:00,79.0,76.0,30.05,SE,140,11.0,13.0,90,-99.99,,,-99.99,,2013-05-18 08:52:00,
2013-05-18 05:00:00,79.0,76.0,30.05,SE,130,10.0,10.0,91,-99.99,,,-99.99,,2013-05-18 09:00:00,
2013-05-18 05:21:00,79.0,76.0,30.05,SE,130,10.0,10.0,91,-99.99,,,-99.99,,2013-05-18 09:21:00,
2013-05-18 05:32:00,79.0,76.0,30.05,SE,130,10.0,10.0,91,-99.99,,,-99.99,,2013-05-18 09:32:00,
2013-05-18 05:43:00,79.0,76.0,30.05,SE,130,10.0,10.0,91,-99.99,,,-99.99,,2013-05-18 09:43:00,
2013-05-18 05:52:00,79.0,76.0,30.05,SE,130,10.0,10.0,91,-99.99,,,-99.99,,2013-05-18 09:52:00,
2013-05-18 06:00:00,79.0,76.0,30.06,ESE,120,7.0,8.0,92,-99.99,,,-99.99,,2013-05-18 10:00:00,
2013-05-18 06:22:00,79.0,76.0,30.06,ESE,120,7.0,8.0,92,-99.99,,,-99.99,,2013-05-18 10:22:00,
2013-05-18 06:33:00,79.0,76.0,30.06,ESE,120,7.0,8.0,92,-99.99,,,-99.99,,2013-05-18 10:33:00,
2013-05-18 06:42:00,79.0,76.0,30.06,ESE,120,7.0,8.0,92,-99.99,,,-99.99,,2013-05-18 10:42:00,
2013-05-18 06:52:00,79.0,76.0,30.06,ESE,120,7.0,8.0,92,-99.99,,,-99.99,,2013-05-18 10:52:00,
2013-05-18 07:00:00,79.0,77.0,30.08,East,100,7.0,7.0,93,-99.99,,,-99.99,,2013-05-18 11:00:00,
2013-05-18 07:22:00,79.0,77.0,30.08,East,100,7.0,7.0,93,-99.99,,,-99.99,,2013-05-18 11:22:00,
2013-05-18 07:33:00,79.0,77.0,30.08,East,100,7.0,7.0,93,-99.99,,,-99.99,,2013-05-18 11:33:00,
2013-05-18 07:42:00,79.0,77.0,30.08,East,100,7.0,7.0,93,-99.99,,,-99.99,,2013-05-18 11:42:00,
2013-05-18 07:52:00,79.0,77.0,30.08,East,100,7.0,7.0,93,-99.99,,,-99.99,,2013-05-18 11:52:00,
2013-05-18 08:00:00,80.0,79.0,30.09,East,100,6.0,7.0,95,-99.99,,,-99.99,,2013-05-18 12:00:00,
2013-05-18 08:22:00,80.0,79.0,30.09,East,100,6.0,7.0,95,-99.99,,,-99.99,,2013-05-18 12:22:00,
2013-05-18 08:33:00,80.0,79.0,30.09,East,100,6.0,7.0,95,-99.99,,,-99.99,,2013-05-18 12:33:00,
2013-05-18 08:41:00,80.0,79.0,30.09,East,100,6.0,7.0,95,-99.99,,,-99.99,,2013-05-18 12:41:00,
2013-05-18 08:51:00,80.0,79.0,30.09,East,100,6.0,7.0,95,-99.99,,,-99.99,,2013-05-18 12:51:00,
2013-05-18 09:00:00,81.0,79.0,30.10,ESE,120,8.0,9.0,94,-99.99,,,-99.99,,2013-05-18 13:00:00,
2013-05-18 09:21:00,81.0,79.0,30.10,ESE,120,8.0,9.0,94,-99.99,,,-99.99,,2013-05-18 13:21:00,
2013-05-18 09:32:00,81.0,79.0,30.10,ESE,120,8.0,9.0,94,-99.99,,,-99.99,,2013-05-18 13:32:00,
2013-05-18 09:43:00,81.0,79.0,30.10,ESE,120,8.0,9.0,94,-99.99,,,-99.99,,2013-05-18 13:43:00,
2013-05-18 09:52:00,81.0,79.0,30.10,ESE,120,8.0,9.0,94,-99.99,,,-99.99,,2013-05-18 13:52:00,
2013-05-18 10:00:00,81.0,78.0,30.11,East,100,8.0,9.0,92,-99.99,,,-99.99,,2013-05-18 14:00:00,
2013-05-18 10:21:00,81.0,78.0,30.11,East,100,8.0,9.0,92,-99.99,,,-99.99,,2013-05-18 14:21:00,
2013-05-18 10:32:00,81.0,78.0,30.11,East,100,8.0,9.0,92,-99.99,,,-99.99,,2013-05-18 14:32:00,
2013-05-18 10:42:00,81.0,78.0,30.11,East,100,8.0,9.0,92,-99.99,,,-99.99,,2013-05-18 14:42:00,
2013-05-18 10:53:00,81.0,78.0,30.11,East,100,8.0,9.0,92,-99.99,,,-99.99,,2013-05-18 14:53:00,
2013-05-18 11:00:00,81.0,78.0,30.11,ESE,110,10.0,11.0,90,-99.99,,,-99.99,,2013-05-18 15:00:00,
2013-05-18 11:23:00,81.0,78.0,30.11,ESE,110,10.0,11.0,90,-99.99,,,-99.99,,2013-05-18 15:23:00,
2013-05-18 11:33:00,81.0,78.0,30.11,ESE,110,10.0,11.0,90,-99.99,,,-99.99,,2013-05-18 15:33:00,
2013-05-18 11:43:00,81.0,78.0,30.11,ESE,110,10.0,11.0,90,-99.99,,,-99.99,,2013-05-18 15:43:00,
2013-05-18 11:53:00,81.0,78.0,30.11,ESE,110,10.0,11.0,90,-99.99,,,-99.99,,2013-05-18 15:53:00,
2013-05-18 12:00:00,81.0,78.0,30.11,ESE,110,9.0,9.0,90,-99.99,,,-99.99,,2013-05-18 16:00:00,
2013-05-18 12:22:00,81.0,78.0,30.11,ESE,110,9.0,9.0,90,-99.99,,,-99.99,,2013-05-18 16:22:00,
2013-05-18 12:32:00,81.0,78.0,30.11,ESE,110,9.0,9.0,90,-99.99,,,-99.99,,2013-05-18 16:32:00,
2013-05-18 12:41:00,81.0,78.0,30.11,ESE,110,9.0,9.0,90,-99.99,,,-99.99,,2013-05-18 16:41:00,
2013-05-18 12:52:00,81.0,78.0,30.11,ESE,110,9.0,9.0,90,-99.99,,,-99.99,,2013-05-18 16:52:00,
2013-05-18 13:00:00,81.0,76.0,30.11,ESE,110,10.0,11.0,86,-99.99,,,-99.99,,2013-05-18 17:00:00,
2013-05-18 13:22:00,81.0,76.0,30.11,ESE,110,10.0,11.0,86,-99.99,,,-99.99,,2013-05-18 17:22:00,
2013-05-18 13:32:00,81.0,76.0,30.11,ESE,110,10.0,11.0,86,-99.99,,,-99.99,,2013-05-18 17:32:00,
2013-05-18 13:42:00,81.0,76.0,30.11,ESE,110,10.0,11.0,86,-99.99,,,-99.99,,2013-05-18 17:42:00,
2013-05-18 13:51:00,81.0,76.0,30.11,ESE,110,10.0,11.0,86,-99.99,,,-99.99,,2013-05-18 17:51:00,
2013-05-18 14:00:00,81.0,78.0,30.10,ESE,110,10.0,10.0,90,-99.99,,,-99.99,,2013-05-18 18:00:00,
2013-05-18 14:21:00,81.0,78.0,30.10,ESE,110,10.0,10.0,90,-99.99,,,-99.99,,2013-05-18 18:21:00,
2013-05-18 14:31:00,81.0,78.0,30.10,ESE,110,10.0,10.0,90,-99.99,,,-99.99,,2013-05-18 18:31:00,
2013-05-18 14:41:00,81.0,78.0,30.10,ESE,110,10.0,10.0,90,-99.99,,,-99.99,,2013-05-18 18:41:00,
2013-05-18 14:51:00,81.0,78.0,30.10,ESE,110,10.0,10.0,90,-99.99,,,-99.99,,2013-05-18 18:51:00,
2013-05-18 15:00:00,81.0,78.0,30.07,SE,130,14.0,15.0,89,-99.99,,,-99.99,,2013-05-18 19:00:00,
2013-05-18 15:21:00,81.0,78.0,30.07,SE,130,14.0,15.0,89,-99.99,,,-99.99,,2013-05-18 19:21:00,
2013-05-18 15:31:00,81.0,78.0,30.07,SE,130,14.0,15.0,89,-99.99,,,-99.99,,2013-05-18 19:31:00,
2013-05-18 15:42:00,81.0,78.0,30.07,SE,130,14.0,15.0,89,-99.99,,,-99.99,,2013-05-18 19:42:00,
2013-05-18 15:52:00,81.0,78.0,30.07,SE,130,14.0,15.0,89,-99.99,,,-99.99,,2013-05-18 19:52:00,
2013-05-18 16:00:00,82.0,78.0,30.06,SE,130,14.0,15.0,88,-99.99,,,-99.99,,2013-05-18 20:00:00,
2013-05-18 16:21:00,82.0,78.0,30.06,SE,130,14.0,15.0,88,-99.99,,,-99.99,,2013-05-18 20:21:00,
2013-05-18 16:32:00,82.0,78.0,30.06,SE,130,14.0,15.0,88,-99.99,,,-99.99,,2013-05-18 20:32:00,
2013-05-18 16:42:00,82.0,78.0,30.06,SE,130,14.0,15.0,88,-99.99,,,-99.99,,2013-05-18 20:42:00,
2013-05-18 16:52:00,82.0,78.0,30.06,SE,130,14.0,15.0,88,-99.99,,,-99.99,,2013-05-18 20:52:00,
2013-05-18 17:00:00,82.0,78.0,30.06,ESE,110,14.0,14.0,88,-99.99,,,-99.99,,2013-05-18 21:00:00,
2013-05-18 17:21:00,82.0,78.0,30.06,ESE,110,14.0,14.0,88,-99.99,,,-99.99,,2013-05-18 21:21:00,
2013-05-18 17:32:00,82.0,78.0,30.06,ESE,110,14.0,14.0,88,-99.99,,,-99.99,,2013-05-18 21:32:00,
2013-05-18 17:43:00,82.0,78.0,30.06,ESE,110,14.0,14.0,88,-99.99,,,-99.99,,2013-05-18 21:43:00,
2013-05-18 17:53:00,82.0,78.0,30.06,ESE,110,14.0,14.0,88,-99.99,,,-99.99,,2013-05-18 21:53:00,
2013-05-18 18:00:00,82.0,77.0,30.04,ESE,110,14.0,15.0,86,-99.99,,,-99.99,,2013-05-18 22:00:00,
2013-05-18 18:32:00,82.0,77.0,30.04,ESE,110,14.0,15.0,86,-99.99,,,-99.99,,2013-05-18 22:32:00,
2013-05-18 18:42:00,82.0,77.0,30.04,ESE,110,14.0,15.0,86,-99.99,,,-99.99,,2013-05-18 22:42:00,
2013-05-18 18:52:00,82.0,77.0,30.04,ESE,110,14.0,15.0,86,-99.99,,,-99.99,,2013-05-18 22:52:00,
2013-05-18 19:00:00,81.0,76.0,30.05,East,100,14.0,15.0,86,-99.99,,,-99.99,,2013-05-18 23:00:00,
2013-05-18 19:21:00,81.0,76.0,30.05,East,100,14.0,15.0,86,-99.99,,,-99.99,,2013-05-18 23:21:00,
2013-05-18 19:32:00,81.0,76.0,30.05,East,100,14.0,15.0,86,-99.99,,,-99.99,,2013-05-18 23:32:00,
2013-05-18 19:41:00,81.0,76.0,30.05,East,100,14.0,15.0,86,-99.99,,,-99.99,,2013-05-18 23:41:00,
2013-05-18 19:52:00,81.0,76.0,30.05,East,100,14.0,15.0,86,-99.99,,,-99.99,,2013-05-18 23:52:00,
2013-05-18 20:00:00,80.0,76.0,30.06,ESE,120,13.0,14.0,87,-99.99,,,-99.99,,2013-05-19 00:00:00,
2013-05-18 20:21:00,80.0,76.0,30.06,ESE,120,13.0,14.0,87,-99.99,,,-99.99,,2013-05-19 00:21:00,
2013-05-18 20:31:00,80.0,76.0,30.06,ESE,120,13.0,14.0,87,-99.99,,,-99.99,,2013-05-19 00:31:00,
2013-05-18 20:41:00,80.0,76.0,30.06,ESE,120,13.0,14.0,87,-99.99,,,-99.99,,2013-05-19 00:41:00,
2013-05-18 20:51:00,80.0,76.0,30.06,ESE,120,13.0,14.0,87,-99.99,,,-99.99,,2013-05-19 00:51:00,
2013-05-18 21:00:00,79.0,76.0,30.08,East,100,15.0,16.0,88,-99.99,,,-99.99,,2013-05-19 01:00:00,
2013-05-18 21:21:00,79.0,76.0,30.08,East,100,15.0,16.0,88,-99.99,,,-99.99,,2013-05-19 01:21:00,
2013-05-18 21:32:00,79.0,76.0,30.08,East,100,15.0,16.0,88,-99.99,,,-99.99,,2013-05-19 01:32:00,
2013-05-18 21:41:00,79.0,76.0,30.08,East,100,15.0,16.0,88,-99.99,,,-99.99,,2013-05-19 01:41:00,
2013-05-18 21:52:00,79.0,76.0,30.08,East,100,15.0,16.0,88,-99.99,,,-99.99,,2013-05-19 01:52:00,
2013-05-18 23:00:00,79.0,75.0,30.09,ESE,110,15.0,16.0,88,-99.99,,,-99.99,,2013-05-19 03:00:00,
2013-05-18 23:21:00,79.0,75.0,30.09,ESE,110,15.0,16.0,88,-99.99,,,-99.99,,2013-05-19 03:21:00,
2013-05-18 23:32:00,79.0,75.0,30.09,ESE,110,15.0,16.0,88,-99.99,,,-99.99,,2013-05-19 03:32:00,
2013-05-18 23:42:00,79.0,75.0,30.09,ESE,110,15.0,16.0,88,-99.99,,,-99.99,,2013-05-19 03:42:00,
2013-05-18 23:53:00,79.0,75.0,30.09,ESE,110,15.0,16.0,88,-99.99,,,-99.99,,2013-05-19 03:53:00,